Tracking 28096 objects as of 28-Sep-2023
HD Live streaming from Space Station
objects crossing your sky now

EKRAN 1

Track EKRAN 1 now!
EKRAN 1 is classified as:


NORAD ID: 9503
Int'l Code: 1976-107A
Perigee: 35,495.0 km
Apogee: 36,086.2 km
Inclination: 6.1 °
Period: 1,435.9 minutes
Semi major axis: 42161 km
RCS: 3.5481 m2 (large)
Launch date: October 26, 1976
Source: Commonwealth of Independent States (former USSR) (CIS)
Launch site: TYURATAM MISSILE AND SPACE COMPLEX (TTMTR)
Your satellite tracking list
Your tracking list is empty




NASA's NSSDC Master Catalog

Two Line Element Set (TLE):
1  9503U 76107A   23271.10118854 -.00000309  00000-0  00000+0 0  9993
2  9503   6.1299 284.5227 0070110 161.6868  53.7358  1.00283100188598
Source of the keplerian elements: AFSPC